EW7486 Weather Reports


time (UTC)temp
C
wind
direction
speed
KPH
gust
KPH
rain 1hr
cm
rain 24hr
cm
rain mn
cm
humidity
%
barometer
mb
20260505223102 26 240 0.0 3.2 0.00 0.00 0.00 37 1010.6
20260505221627 26 131 0.0 3.2 0.00 0.00 0.00 36 1010.5
20260505220005 27 229 0.0 3.2 0.00 0.00 0.00 36 1010.5
20260505214547 27 197 0.0 3.2 0.00 0.00 0.00 35 1010.5
20260505213109 27 215 0.0 8.0 0.00 0.00 0.00 34 1010.6
20260505211542 27 207 0.0 3.2 0.00 0.00 0.00 36 1010.7
20260505210059 27 213 0.0 9.7 0.00 0.00 0.00 35 1010.8
20260505204642 27 171 0.0 4.8 0.00 0.00 0.00 36 1010.8
20260505203146 26 216 0.0 3.2 0.00 0.00 0.00 36 1010.9
20260505201550 26 146 0.0 3.2 0.00 0.00 0.00 36 1011.2
20260505200059 26 108 0.0 3.2 0.00 0.00 0.00 37 1011.3
20260505194546 26 214 0.0 3.2 0.00 0.00 0.00 36 1011.4
20260505193042 27 237 0.0 4.8 0.00 0.00 0.00 36 1011.8
20260505191539 26 198 0.0 3.2 0.00 0.00 0.00 36 1012.3
20260505190045 26 225 0.0 3.2 0.00 0.00 0.00 40 1012.5
20260505184533 25 183 0.0 3.2 0.00 0.00 0.00 39 1012.7
20260505183041 25 134 0.0 9.7 0.00 0.00 0.00 38 1012.7
20260505181526 25 136 0.0 4.8 0.00 0.00 0.00 40 1013.0
20260505174600 24 224 0.0 6.4 0.00 0.00 0.00 41 1013.3
20260505173044 23 134 0.0 3.2 0.00 0.00 0.00 43 1013.6
20260505171555 23 234 0.0 9.7 0.00 0.00 0.00 42 1013.7
20260505170147 23 121 0.0 3.2 0.00 0.00 0.00 44 1013.8
20260505164634 22 296 0.0 3.2 0.00 0.00 0.00 47 1013.6
20260505163044 21 200 0.0 4.8 0.00 0.00 0.00 47 1013.6
20260505161541 21 293 0.0 6.4 0.00 0.00 0.00 53 1013.9
20260505153029 18 278 0.0 0.0 0.00 0.00 0.00 56 1014.4
20260505151509 18 298 0.0 0.0 0.00 0.00 0.00 58 1014.4
20260505150137 17 187 0.0 0.0 0.00 0.00 0.00 63 1014.6
20260505124502 12 136 0.0 0.0 0.00 0.00 0.00 84 1014.0
20260505123100 11 136 0.0 0.0 0.00 0.00 0.00 84 1014.1
20260505121558 11 136 0.0 0.0 0.00 0.00 0.00 84 1013.8
20260505120105 11 136 0.0 0.0 0.00 0.00 0.00 85 1013.6
20260505114554 11 136 0.0 0.0 0.00 0.00 0.00 85 1013.4
20260505113055 11 136 0.0 0.0 0.00 0.00 0.00 84 1013.2
20260505111549 11 136 0.0 0.0 0.00 0.00 0.00 82 1013.2
20260505101545 12 136 0.0 0.0 0.00 0.00 0.00 76 1012.8
20260505100043 12 136 0.0 0.0 0.00 0.00 0.00 77 1012.9
20260505094542 12 136 0.0 0.0 0.00 0.00 0.00 78 1012.7
20260505093041 12 136 0.0 0.0 0.00 0.00 0.00 78 1012.7
20260505091540 12 136 0.0 0.0 0.00 0.00 0.00 79 1012.7
20260505090041 11 136 0.0 0.0 0.00 0.00 0.00 79 1012.7
20260505084546 11 136 0.0 0.0 0.00 0.00 0.00 81 1012.7
20260505083039 11 136 0.0 3.2 0.00 0.00 0.00 83 1012.7
20260505081537 11 191 0.0 0.0 0.00 0.00 0.00 82 1012.5
20260505080038 12 191 0.0 0.0 0.00 0.00 0.00 83 1012.2
20260505074536 12 191 0.0 0.0 0.00 0.00 0.00 82 1012.2
20260505073040 12 191 0.0 0.0 0.00 0.00 0.00 82 1012.3
20260505071530 12 191 0.0 0.0 0.00 0.00 0.00 82 1012.4
20260505070037 13 191 0.0 0.0 0.00 0.00 0.00 78 1012.4
20260505064524 13 191 0.0 0.0 0.00 0.00 0.00 76 1012.5
20260505063023 13 191 0.0 0.0 0.00 0.00 0.00 76 1012.6
20260505061525 13 191 0.0 0.0 0.00 0.00 0.00 77 1012.7
20260505060019 13 191 0.0 0.0 0.00 0.00 0.00 74 1012.7
20260505054517 14 191 0.0 0.0 0.00 0.00 0.00 74 1012.6
20260505053019 14 191 0.0 0.0 0.00 0.00 0.00 71 1012.7
20260505051519 15 191 0.0 0.0 0.00 0.00 0.00 68 1012.7
20260505041504 16 191 0.0 0.0 0.00 0.00 0.00 68 1012.7
20260505040101 16 191 0.0 0.0 0.00 0.00 0.00 66 1012.7
20260505034600 17 191 0.0 0.0 0.00 0.00 0.00 64 1012.7
20260505033104 17 191 0.0 0.0 0.00 0.00 0.00 56 1012.8
20260505031607 18 191 0.0 0.0 0.00 0.00 0.00 53 1012.7
20260505030052 18 191 0.0 0.0 0.00 0.00 0.00 51 1012.8
20260505024622 18 191 0.0 0.0 0.00 0.00 0.00 50 1012.9
20260505023008 18 191 0.0 0.0 0.00 0.00 0.00 51 1012.9
20260505021534 19 191 0.0 0.0 0.00 0.00 0.00 49 1012.6
20260505020109 20 191 0.0 0.0 0.00 0.00 0.00 49 1012.5
20260505014602 20 191 0.0 0.0 0.00 0.00 0.00 49 1012.4
20260505013121 20 191 0.0 0.0 0.00 0.00 0.00 50 1012.3
20260505011605 20 191 0.0 0.0 0.00 0.00 0.00 48 1012.1
20260505010132 21 191 0.0 0.0 0.00 0.00 0.00 44 1011.9
20260505004506 21 191 0.0 1.6 0.00 0.00 0.00 44 1012.0
20260505003022 21 191 0.0 0.0 0.00 0.00 0.00 47 1011.9
20260505001604 22 191 0.0 0.0 0.00 0.00 0.00 44 1011.8
20260505000134 22 191 0.0 0.0 0.00 0.00 0.00 42 1011.8
20260504234609 22 191 0.0 3.2 0.00 0.00 0.00 41 1011.7
20260504233106 23 195 0.0 3.2 0.00 0.00 0.00 41 1011.6
20260504231548 23 188 0.0 3.2 0.00 0.00 0.00 40 1011.5
20260504230129 23 214 0.0 3.2 0.00 0.00 0.00 39 1011.5
20260504224614 24 156 0.0 4.8 0.00 0.00 0.00 37 1011.4